When you browse on this site, cookies collect data to enhance your experience and personalize the content and advertising you see.
Visit our Privacy Policy to learn more. By continuing to use the site, you agree to this use of cookies and data.
  • Em Portugal
  • Lista de países
  • Para 7 dias
  • Temperatura da água
  • Mapas de satélite
  • Mapa do tempo
  • Widgets de tempo
  • user-avatar
    Iniciar Sessão

    Previsão horária em Pernik

    Hoje, 16 Novembro, Sexta-feira

    Tempo Temperatura Precipitação Vento Pressão Humidade
    00:00 +2°C° 0 mm 1 m/s 695 mmHg 79%
    01:00 +2°C° 0 mm 1 m/s 695 mmHg 80%
    02:00 +2°C° 0 mm 1 m/s 695 mmHg 81%
    03:00 +2°C° 0 mm 1 m/s 695 mmHg 82%
    04:00 +2°C° 0 mm 1 m/s 695 mmHg 84%
    05:00 +2°C° 0 mm 1 m/s 695 mmHg 85%
    06:00 +2°C° 0 mm 1 m/s 695 mmHg 85%
    07:00 +2°C° 0 mm 1 m/s 696 mmHg 85%
    08:00 +3°C° 0 mm 1 m/s 696 mmHg 82%
    09:00 +4°C° 0 mm 1 m/s 696 mmHg 75%
    10:00 +4°C° 0 mm 2 m/s 696 mmHg 68%
    11:00 +5°C° 0 mm 2 m/s 697 mmHg 61%
    12:00 +5°C° 0 mm 3 m/s 696 mmHg 58%
    13:00 +5°C° 0 mm 3 m/s 696 mmHg 55%
    14:00 +5°C° 0 mm 4 m/s 696 mmHg 52%
    15:00 +4°C° 0 mm 3 m/s 696 mmHg 57%
    16:00 +3°C° 0 mm 3 m/s 696 mmHg 62%
    17:00 +3°C° 0 mm 2 m/s 696 mmHg 67%
    18:00 +2°C° 0 mm 2 m/s 696 mmHg 73%
    19:00 +1°C° 0 mm 2 m/s 696 mmHg 78%
    20:00 +1°C° 0 mm 1 m/s 696 mmHg 84%
    21:00 0°C° 0 mm 1 m/s 696 mmHg 85%
    22:00 0°C° 0 mm 1 m/s 696 mmHg 85%
    23:00 0°C° 0 mm 1 m/s 696 mmHg 86%

    Amanhã, 17 Novembro, Sábado

    Tempo Temperatura Precipitação Vento Pressão Humidade
    00:00 -1°C° 0 mm 1 m/s 696 mmHg 86%
    01:00 -1°C° 0 mm 1 m/s 696 mmHg 86%
    02:00 -1°C° 0 mm 1 m/s 696 mmHg 87%
    03:00 -1°C° 0 mm 1 m/s 696 mmHg 87%
    04:00 -2°C° 0 mm 1 m/s 696 mmHg 88%
    05:00 -2°C° 0 mm 1 m/s 696 mmHg 89%
    06:00 -4°C° 0 mm 2 m/s 696 mmHg 88%
    07:00 -4°C° 0 mm 2 m/s 696 mmHg 87%
    08:00 -4°C° 0 mm 2 m/s 696 mmHg 86%
    09:00 -2°C° 0 mm 2 m/s 697 mmHg 77%
    10:00 -1°C° 0 mm 2 m/s 697 mmHg 68%
    11:00 +2°C° 0 mm 2 m/s 697 mmHg 59%
    12:00 +3°C° 0 mm 2 m/s 697 mmHg 57%
    13:00 +3°C° 0 mm 2 m/s 697 mmHg 55%
    14:00 +3°C° 0 mm 3 m/s 697 mmHg 53%
    15:00 +3°C° 0 mm 2 m/s 696 mmHg 58%
    16:00 +2°C° 0 mm 2 m/s 696 mmHg 62%
    17:00 +1°C° 0 mm 2 m/s 696 mmHg 67%
    18:00 -1°C° 0 mm 2 m/s 696 mmHg 72%
    19:00 -2°C° 0 mm 2 m/s 696 mmHg 78%
    20:00 -2°C° 0 mm 2 m/s 696 mmHg 83%
    21:00 -3°C° 0 mm 2 m/s 696 mmHg 85%
    22:00 -3°C° 0 mm 2 m/s 696 mmHg 87%
    23:00 -1°C° 0 mm 1 m/s 696 mmHg 88%

    Depois de amanhã, 18 Novembro, Domingo

    Tempo Temperatura Precipitação Vento Pressão Humidade
    00:00 -1°C° 0 mm 1 m/s 696 mmHg 89%
    01:00 -1°C° 0 mm 1 m/s 696 mmHg 89%
    02:00 -2°C° 0 mm 1 m/s 696 mmHg 90%
    03:00 -2°C° 0 mm 1 m/s 696 mmHg 90%
    04:00 -2°C° 0 mm 1 m/s 695 mmHg 90%
    05:00 -2°C° 0 mm 1 m/s 695 mmHg 90%
    06:00 -1°C° 0 mm 1 m/s 695 mmHg 88%
    07:00 -1°C° 0 mm 1 m/s 695 mmHg 86%
    08:00 -1°C° 0 mm 1 m/s 695 mmHg 84%
    09:00 +1°C° 0 mm 1 m/s 695 mmHg 78%
    10:00 +1°C° 0 mm 2 m/s 695 mmHg 72%
    11:00 +3°C° 0 mm 2 m/s 695 mmHg 66%
    12:00 +4°C° 0 mm 2 m/s 695 mmHg 63%
    13:00 +4°C° 0 mm 2 m/s 694 mmHg 60%
    14:00 +5°C° 0 mm 2 m/s 693 mmHg 57%
    15:00 +4°C° 0 mm 2 m/s 693 mmHg 63%
    16:00 +3°C° 0 mm 2 m/s 692 mmHg 68%
    17:00 +2°C° 0 mm 2 m/s 691 mmHg 74%
    18:00 +3°C° 0 mm 1 m/s 691 mmHg 77%
    19:00 +2°C° 0 mm 1 m/s 691 mmHg 80%
    20:00 +2°C° 0 mm 1 m/s 691 mmHg 83%
    21:00 +2°C° 0.2 mm 1 m/s 690 mmHg 84%
    22:00 +2°C° 0.2 mm 1 m/s 690 mmHg 85%
    23:00 +2°C° 0.2 mm 1 m/s 690 mmHg 86%

    19 Novembro, Segunda-feira

    Tempo Temperatura Precipitação Vento Pressão Humidade
    00:00 +2°C° 0.4 mm 1 m/s 689 mmHg 87%
    01:00 +2°C° 0.4 mm 1 m/s 689 mmHg 88%
    02:00 +2°C° 0.4 mm 1 m/s 688 mmHg 89%
    03:00 +2°C° 0.3 mm 1 m/s 688 mmHg 90%
    04:00 +2°C° 0.3 mm 1 m/s 688 mmHg 90%
    05:00 +2°C° 0.3 mm 1 m/s 687 mmHg 91%
    06:00 +2°C° 0.5 mm 1 m/s 687 mmHg 90%
    07:00 +2°C° 0.5 mm 1 m/s 687 mmHg 89%
    08:00 +1°C° 0.5 mm 0 m/s 687 mmHg 89%
    09:00 +2°C° 0.2 mm 0 m/s 687 mmHg 86%
    10:00 +3°C° 0.2 mm 0 m/s 687 mmHg 83%
    11:00 +4°C° 0.2 mm 0 m/s 687 mmHg 80%
    12:00 +6°C° 0.1 mm 1 m/s 687 mmHg 78%
    13:00 +7°C° 0.1 mm 1 m/s 687 mmHg 76%
    14:00 +7°C° 0.1 mm 1 m/s 687 mmHg 74%
    15:00 +6°C° 0 mm 1 m/s 687 mmHg 78%
    16:00 +5°C° 0 mm 1 m/s 686 mmHg 82%
    17:00 +5°C° 0 mm 1 m/s 686 mmHg 86%
    18:00 +4°C° 0 mm 1 m/s 686 mmHg 88%
    19:00 +4°C° 0 mm 1 m/s 687 mmHg 89%
    20:00 +4°C° 0 mm 1 m/s 687 mmHg 90%
    21:00 +4°C° 0.1 mm 1 m/s 687 mmHg 90%
    22:00 +4°C° 0.1 mm 1 m/s 687 mmHg 90%
    23:00 +4°C° 0.1 mm 1 m/s 687 mmHg 90%

    20 Novembro, Terça-feira

    Tempo Temperatura Precipitação Vento Pressão Humidade
    00:00 +4°C° 0.2 mm 1 m/s 687 mmHg 90%
    01:00 +4°C° 0.2 mm 1 m/s 687 mmHg 91%
    02:00 +4°C° 0.2 mm 1 m/s 687 mmHg 91%
    03:00 +4°C° 0.2 mm 1 m/s 687 mmHg 91%
    04:00 +4°C° 0.2 mm 1 m/s 687 mmHg 91%
    05:00 +4°C° 0.2 mm 1 m/s 687 mmHg 91%
    06:00 +4°C° 0.2 mm 1 m/s 687 mmHg 91%
    07:00 +5°C° 0.2 mm 1 m/s 687 mmHg 91%
    08:00 +5°C° 0.2 mm 1 m/s 687 mmHg 91%
    09:00 +6°C° 0.3 mm 1 m/s 687 mmHg 89%
    10:00 +6°C° 0.3 mm 1 m/s 687 mmHg 87%
    11:00 +6°C° 0.3 mm 2 m/s 687 mmHg 84%
    12:00 +6°C° 0.4 mm 2 m/s 687 mmHg 84%
    13:00 +7°C° 0.4 mm 2 m/s 686 mmHg 83%
    14:00 +7°C° 0.4 mm 2 m/s 685 mmHg 83%
    15:00 +7°C° 0.7 mm 2 m/s 685 mmHg 86%
    16:00 +7°C° 0.7 mm 2 m/s 684 mmHg 89%
    17:00 +6°C° 0.7 mm 2 m/s 684 mmHg 91%
    18:00 +6°C° 0.3 mm 2 m/s 683 mmHg 91%
    19:00 +7°C° 0.3 mm 3 m/s 683 mmHg 92%
    20:00 +7°C° 0.3 mm 3 m/s 682 mmHg 92%
    21:00 +7°C° 0 mm 3 m/s 681 mmHg 91%
    22:00 +7°C° 0 mm 3 m/s 681 mmHg 90%
    23:00 +7°C° 0 mm 3 m/s 680 mmHg 89%

    21 Novembro, Quarta-feira

    Tempo Temperatura Precipitação Vento Pressão Humidade
    00:00 +8°C° 0.3 mm 3 m/s 680 mmHg 89%
    01:00 +7°C° 0.3 mm 4 m/s 679 mmHg 90%
    02:00 +7°C° 0.3 mm 4 m/s 679 mmHg 90%
    03:00 +7°C° 0 mm 4 m/s 678 mmHg 89%
    04:00 +7°C° 0 mm 4 m/s 678 mmHg 89%
    05:00 +7°C° 0 mm 5 m/s 678 mmHg 88%
    06:00 +7°C° 0 mm 4 m/s 678 mmHg 88%
    07:00 +7°C° 0 mm 4 m/s 678 mmHg 88%
    08:00 +7°C° 0 mm 4 m/s 678 mmHg 88%
    09:00 +8°C° 0 mm 5 m/s 679 mmHg 81%
    10:00 +10°C° 0 mm 6 m/s 679 mmHg 74%
    11:00 +11°C° 0 mm 7 m/s 680 mmHg 68%
    12:00 +13°C° 0 mm 6 m/s 680 mmHg 65%
    13:00 +13°C° 0 mm 6 m/s 680 mmHg 61%
    14:00 +13°C° 0 mm 6 m/s 681 mmHg 58%
    15:00 +12°C° 0 mm 5 m/s 681 mmHg 62%
    16:00 +10°C° 0 mm 4 m/s 681 mmHg 66%
    17:00 +9°C° 0 mm 3 m/s 681 mmHg 69%
    18:00 +8°C° 0 mm 2 m/s 682 mmHg 72%
    19:00 +7°C° 0 mm 2 m/s 683 mmHg 74%
    20:00 +6°C° 0 mm 2 m/s 683 mmHg 76%
    21:00 +6°C° 0 mm 1 m/s 683 mmHg 77%
    22:00 +6°C° 0 mm 1 m/s 684 mmHg 78%
    23:00 +5°C° 0 mm 1 m/s 684 mmHg 78%
    Mostrar mais